TimeCST,TemperatureF,Dew PointF,Humidity,Sea Level PressureIn,VisibilityMPH,Wind Direction,Wind SpeedMPH,Gust SpeedMPH,PrecipitationIn,Events,Conditions,WindDirDegrees,DateUTC
12:53 AM,39.0,33.1,79,30.01,10.0,West,6.9,-,N/A,,Clear,270,2014-01-12 06:53:00
1:53 AM,35.1,30.9,85,30.02,10.0,Calm,Calm,-,N/A,,Clear,0,2014-01-12 07:53:00
2:53 AM,32.0,28.9,88,30.04,10.0,SW,4.6,-,N/A,,Clear,220,2014-01-12 08:53:00
3:53 AM,30.9,28.0,89,30.06,10.0,SW,5.8,-,N/A,,Clear,230,2014-01-12 09:53:00
4:53 AM,33.1,30.0,89,30.08,10.0,SSW,4.6,-,N/A,,Clear,200,2014-01-12 10:53:00
5:53 AM,33.1,30.0,89,30.09,10.0,SSW,4.6,-,N/A,,Clear,200,2014-01-12 11:53:00
6:53 AM,30.9,28.0,89,30.10,10.0,South,4.6,-,N/A,,Clear,190,2014-01-12 12:53:00
7:53 AM,33.1,30.0,89,30.12,10.0,SSW,6.9,-,N/A,,Clear,200,2014-01-12 13:53:00
8:53 AM,41.0,35.1,79,30.14,10.0,SSW,4.6,-,N/A,,Clear,210,2014-01-12 14:53:00
9:53 AM,46.0,36.0,68,30.13,10.0,SSE,5.8,-,N/A,,Clear,160,2014-01-12 15:53:00
10:53 AM,51.1,34.0,52,30.10,10.0,South,9.2,-,N/A,,Clear,180,2014-01-12 16:53:00
11:53 AM,55.0,32.0,42,30.06,10.0,South,8.1,-,N/A,,Clear,180,2014-01-12 17:53:00
12:53 PM,57.0,33.1,40,30.02,10.0,South,11.5,-,N/A,,Clear,190,2014-01-12 18:53:00
1:53 PM,59.0,30.9,35,30.01,10.0,SSW,11.5,-,N/A,,Clear,200,2014-01-12 19:53:00
2:53 PM,59.0,30.0,33,30.00,10.0,SSW,11.5,-,N/A,,Clear,210,2014-01-12 20:53:00
3:53 PM,59.0,28.9,32,29.99,10.0,South,10.4,18.4,N/A,,Clear,190,2014-01-12 21:53:00
4:53 PM,55.9,30.0,37,29.99,10.0,South,8.1,-,N/A,,Clear,170,2014-01-12 22:53:00
5:53 PM,54.0,28.9,38,29.99,10.0,South,9.2,-,N/A,,Clear,170,2014-01-12 23:53:00
6:53 PM,53.1,32.0,45,29.97,10.0,SSE,10.4,19.6,N/A,,Clear,160,2014-01-13 00:53:00
7:53 PM,52.0,33.1,49,29.96,10.0,South,9.2,18.4,N/A,,Clear,180,2014-01-13 01:53:00
8:53 PM,52.0,32.0,47,29.96,10.0,South,10.4,-,N/A,,Clear,180,2014-01-13 02:53:00
9:53 PM,53.1,32.0,45,29.95,10.0,South,10.4,-,N/A,,Clear,170,2014-01-13 03:53:00
10:53 PM,54.0,30.9,41,29.93,10.0,South,11.5,18.4,N/A,,Clear,180,2014-01-13 04:53:00
11:53 PM,54.0,32.0,43,29.93,10.0,South,13.8,19.6,N/A,,Clear,190,2014-01-13 05:53:00